Regional Weather Roundup
Issued by NWS Jackson, KY

Home | Current Version | Previous Version | Graphics & Text | Print | Product List | Glossary On
Versions: 1 2 3 4 5 6 7 8 9 10 11 12 13 14 15 16 17 18 19 20 21 22 23 24 25 26 27 28 29 30 31 32 33 34 35 36 37 38 39 40 41 42 43 44 45 46 47 48 49 50
000
ASUS43 KJKL 230510
RWRJKL

EAST KENTUCKY HOURLY WEATHER ROUNDUP
NATIONAL WEATHER SERVICE JACKSON KY
100 AM EDT SUN APR 23 2017

NOTE: "FAIR" INDICATES FEW OR NO CLOUDS BELOW 12,000 FEET WITH
NO SIGNIFICANT WEATHER AND/OR OBSTRUCTIONS TO VISIBILITY.

* THESE REPORTS ARE NOT UNDER NWS QUALITY CONTROL AND MAY NOT
  REPORT WEATHER SUCH AS PRECIPITATION AND FOG.

KYZ079-080-083-085-087-088-110-112-115-119-120-230600
...EASTERN KENTUCKY...

CITY           SKY/WX    TMP DP  RH WIND       PRES   REMARKS
JACKSON        CLOUDY    47  45  93 CALM      29.98F
LONDON         LGT RAIN  48  45  89 NE10      29.95F FOG
SOMERSET*      CLOUDY    46  46 100 E12       29.96S
MONTICELLO*    CLOUDY    50  48  93 N10G20    29.95F
WILLIAMSBURG*  CLOUDY    48  48 100 N6        29.93F
MIDDLESBORO*   CLOUDY    52  52  99 CALM      29.92F
HARLAN APT*    CLOUDY    50  48  93 CALM      29.94S
PIKE CO APT*   LGT RAIN  46  46 100 N8        29.98F VSB 1/2
BIG SANDY APT* CLOUDY    47  47  99 NE6       30.00S
MOREHEAD APT*  PTCLDY    45  41  87 NE5       30.04S
ASHLAND*       CLEAR     45  41  87 NE5       30.02S
$$

KYZ035-036-041-042-044-050-067-078-099-230600
...CENTRAL KENTUCKY...

CITY           SKY/WX    TMP DP  RH WIND       PRES   REMARKS
MT STERLING*   PTCLDY    45  41  87 E7        30.03S
FLEMING/MASON* CLEAR     44  39  82 NE5       30.05R
DANVILLE*      CLOUDY    46  43  87 NE7G17    29.99F
LEXINGTON      MOCLDY    46  40  79 NE10      30.01F
FRANKFORT      CLEAR     47  38  71 NE7       30.00F
LOUISVILLE     MOCLDY    49  39  68 NE9       30.02F
LEBANON*       CLOUDY    48  43  81 NE8       29.98F
GLASGOW*       CLOUDY    49  49 100 NE13G18   29.94F
BOWLING GREEN  CLOUDY    52  48  86 NE9       29.95F
$$

KYZ091>093-OHZ055-061-077-WVZ005-015-034-035-042-230600
...SOUTHERN OHIO/WEST VIRGINIA...

CITY           SKY/WX    TMP DP  RH WIND       PRES   REMARKS
COVINGTON      CLEAR     47  35  63 NE14      30.06S
COLUMBUS       CLEAR     42  35  76 N8        30.09R
DAYTON         CLEAR     39  33  79 N7        30.10S WCI  34
WILMINGTON     CLEAR     41  36  82 NE12      30.06S
HUNTINGTON     CLEAR     46  42  86 CALM      30.02S
CHARLESTON     CLOUDY    45  42  89 NE3       30.01F
PINEVILLE*     CLOUDY    50  48  92 MISG      30.01S
BECKLEY        FOG       45  45 100 NE5       29.98S VSB 1/4
BLUEFIELD      CLOUDY    47  46  97 VRB3      29.97R FOG
LOGAN CO APT*  CLOUDY    46  45  93 N7        29.98S
$$

VAZ002-007-008-TNZ017-027-036-066-071-230600
...SOUTHWEST VIRGINIA/EAST TENNESSEE...

CITY           SKY/WX    TMP DP  RH WIND       PRES   REMARKS
WISE*          FOG       46  46 100 CALM      29.96S VSB<1/4
JONESVILLE*    CLOUDY    54  54 100 CALM      29.93F
ABINGDON*      MOCLDY    55  55  99 E5        29.92R
BRISTOL        CLOUDY    57  55  93 CALM      29.90S
MORRISTOWN*    CLEAR     57  57 100 NE5       29.85F
SEVIERVILLE*   PTCLDY    55  55 100 CALM      29.85F
KNOXVILLE      CLOUDY    59  57  93 NW3       29.86S
LAFOLLETTE*    CLOUDY    54  54 100 CALM      29.92S
OAK RIDGE      CLOUDY    56  54  93 E3        29.89R
CROSSVILLE     FOG       51  50  96 NE6       29.89R VSB 1/4
NASHVILLE      DRIZZLE   53  50  89 N10       29.90F FOG
$$

...KEY TO REMARKS...
VSB - VISIBILITY IN MILES
WCI - WIND CHILL INDEX
HX  - HEAT INDEX

$$



USA.gov is the U.S. government's official web portal to all federal, state and local government web resources and services.